Tracking 19475 objects as of 18-Jan-2019
HD Live streaming from Space Station
objects crossing your sky now

GAOFEN 1-03

Track GAOFEN 1-03 now!
10-day predictions


NORAD ID: 43260
Int'l Code: 2018-031B
Perigee: 643.4 km
Apogee: 652.2 km
Inclination: 98.0 °
Period: 97.5 minutes
Semi major axis: 7018 km
RCS: Unknown
Launch date: March 31, 2018
Source: People's Republic of China (PRC)
Launch site: Taiyaun Space Center, China (TSC)
aabbcc
Your satellite tracking list
Your tracking list is empty




NASA's NSSDC Master Catalog

Two Line Element Set (TLE):
1 43260U 18031B   19018.41546842 -.00000840  00000-0 -11340-3 0  9997
2 43260  98.0114  97.4621 0006310 119.9451 240.2323 14.76418078 43277
Source of the keplerian elements: AFSPC